EZY246Y EGKK-EGPH

Flight info

Callsign EZY246Y
Flight time 1h 7m
Altitude 38000
Route LAM1Z LAM L10 BPK UN601 RIBEL DCT INPIP
Aircraft A320/M-SDE2E3FGHIJ1RWXYZ/LB1

Departure

Time 2026-04-26 09:33
Airport London Gatwick Airport (EGKK)

Arrival

Time 2026-04-26 10:40
Airport Edinburgh Airport (EGPH)
Time Latitude Longitude Altitude Speed Heading
2026-04-26 09:11 51.15470 -0.17091 205 ft 0 kts 348°
2026-04-26 09:18 51.15466 -0.17089 205 ft 2 kts 348°
2026-04-26 09:19 51.15450 -0.17084 215 ft 2 kts 347°
2026-04-26 09:19 51.15433 -0.17076 207 ft 3 kts 324°
2026-04-26 09:19 51.15421 -0.17055 213 ft 3 kts 287°
2026-04-26 09:19 51.15419 -0.17030 205 ft 2 kts 252°
2026-04-26 09:20 51.15419 -0.17028 205 ft 0 kts 250°
2026-04-26 09:20 51.15421 -0.17022 205 ft 0 kts 255°
2026-04-26 09:22 51.15417 -0.17046 217 ft 3 kts 255°
2026-04-26 09:22 51.15406 -0.17122 210 ft 8 kts 256°
2026-04-26 09:23 51.15391 -0.17182 205 ft 9 kts 249°
2026-04-26 09:23 51.15372 -0.17283 210 ft 3 kts 252°
2026-04-26 09:23 51.15368 -0.17300 211 ft 0 kts 252°
2026-04-26 09:24 51.15368 -0.17303 210 ft 2 kts 252°
2026-04-26 09:24 51.15359 -0.17337 211 ft 3 kts 243°
2026-04-26 09:24 51.15312 -0.17393 211 ft 11 kts 226°
2026-04-26 09:24 51.15291 -0.17525 205 ft 19 kts 259°
2026-04-26 09:25 51.15262 -0.17744 210 ft 20 kts 256°
2026-04-26 09:25 51.15229 -0.17971 215 ft 24 kts 256°
2026-04-26 09:25 51.15191 -0.18252 205 ft 26 kts 257°
2026-04-26 09:25 51.15156 -0.18539 211 ft 27 kts 258°
2026-04-26 09:26 51.15117 -0.18830 208 ft 27 kts 259°
2026-04-26 09:26 51.15077 -0.19120 207 ft 27 kts 258°
2026-04-26 09:26 51.15035 -0.19415 207 ft 28 kts 256°
2026-04-26 09:26 51.14996 -0.19723 205 ft 29 kts 257°
2026-04-26 09:27 51.14950 -0.20047 208 ft 31 kts 258°
2026-04-26 09:27 51.14929 -0.20209 205 ft 7 kts 258°
2026-04-26 09:27 51.14910 -0.20338 213 ft 18 kts 258°
2026-04-26 09:27 51.14881 -0.20547 214 ft 21 kts 257°
2026-04-26 09:28 51.14845 -0.20816 205 ft 29 kts 257°
2026-04-26 09:28 51.14799 -0.21138 214 ft 24 kts 252°
2026-04-26 09:28 51.14751 -0.21388 213 ft 17 kts 227°
2026-04-26 09:28 51.14706 -0.21401 205 ft 0 kts 164°
2026-04-26 09:29 51.14694 -0.21394 213 ft 6 kts 159°
2026-04-26 09:29 51.14657 -0.21358 214 ft 6 kts 144°
2026-04-26 09:29 51.14627 -0.21334 207 ft 4 kts 163°
2026-04-26 09:29 51.14612 -0.21328 207 ft 0 kts 167°
2026-04-26 09:31 51.14610 -0.21328 205 ft 2 kts 167°
2026-04-26 09:32 51.14555 -0.21295 216 ft 11 kts 145°
2026-04-26 09:32 51.14522 -0.21168 206 ft 14 kts 79°
2026-04-26 09:32 51.14529 -0.21109 212 ft 0 kts 78°
2026-04-26 09:33 51.14546 -0.20979 210 ft 42 kts 77°
2026-04-26 09:33 51.14667 -0.20115 212 ft 114 kts 76°
2026-04-26 09:33 51.14876 -0.18585 213 ft 167 kts 78°
2026-04-26 09:33 51.15125 -0.16822 1123 ft 155 kts 78°
2026-04-26 09:34 51.15364 -0.15194 2059 ft 152 kts 81°
2026-04-26 09:34 51.15586 -0.13563 2810 ft 150 kts 79°
2026-04-26 09:34 51.15805 -0.11932 3456 ft 152 kts 78°
2026-04-26 09:34 51.16038 -0.10204 3902 ft 168 kts 79°
2026-04-26 09:35 51.16295 -0.08304 4368 ft 184 kts 79°
2026-04-26 09:35 51.16771 -0.06331 4881 ft 201 kts 58°
2026-04-26 09:35 51.17670 -0.04419 5007 ft 232 kts 53°
2026-04-26 09:35 51.18724 -0.02244 5011 ft 262 kts 53°
2026-04-26 09:36 51.19848 0.00068 5001 ft 264 kts 53°
2026-04-26 09:36 51.20969 0.02377 5030 ft 265 kts 53°
2026-04-26 09:36 51.22097 0.04702 5035 ft 265 kts 53°
2026-04-26 09:36 51.23225 0.07027 5040 ft 265 kts 53°
2026-04-26 09:37 51.24343 0.09356 5041 ft 264 kts 56°
2026-04-26 09:37 51.25129 0.11982 5038 ft 263 kts 76°
2026-04-26 09:37 51.25487 0.14837 5037 ft 262 kts 80°
2026-04-26 09:37 51.25826 0.17707 5037 ft 262 kts 80°
2026-04-26 09:38 51.26163 0.20571 5035 ft 262 kts 80°
2026-04-26 09:38 51.26495 0.23392 5034 ft 263 kts 79°
2026-04-26 09:38 51.26834 0.26255 4941 ft 263 kts 79°
2026-04-26 09:38 51.27172 0.29132 4945 ft 263 kts 80°
2026-04-26 09:39 51.27581 0.32003 4937 ft 263 kts 69°
2026-04-26 09:39 51.28570 0.34396 4944 ft 264 kts 43°
2026-04-26 09:39 51.30130 0.35901 4941 ft 266 kts 18°
2026-04-26 09:39 51.31978 0.36186 4946 ft 269 kts 352°
2026-04-26 09:40 51.33759 0.35282 4948 ft 271 kts 339°
2026-04-26 09:40 51.35503 0.34149 4963 ft 271 kts 339°
2026-04-26 09:40 51.37253 0.33009 5028 ft 271 kts 339°
2026-04-26 09:40 51.38997 0.31875 5030 ft 271 kts 339°
2026-04-26 09:41 51.40741 0.30740 5031 ft 270 kts 339°
2026-04-26 09:41 51.42481 0.29608 5123 ft 270 kts 339°
2026-04-26 09:41 51.44221 0.28482 5711 ft 272 kts 339°
2026-04-26 09:41 51.45980 0.27345 5979 ft 273 kts 338°
2026-04-26 09:42 51.47747 0.26200 6030 ft 273 kts 338°
2026-04-26 09:42 51.49504 0.25056 6034 ft 273 kts 338°
2026-04-26 09:42 51.51264 0.23907 6034 ft 273 kts 338°
2026-04-26 09:42 51.53028 0.22756 6038 ft 273 kts 338°
2026-04-26 09:43 51.54788 0.21604 6035 ft 273 kts 338°
2026-04-26 09:43 51.56546 0.20453 6034 ft 273 kts 338°
2026-04-26 09:43 51.58304 0.19301 6042 ft 273 kts 338°
2026-04-26 09:43 51.59471 0.18539 6035 ft 273 kts 338°
2026-04-26 09:44 51.61236 0.17388 6036 ft 273 kts 338°
2026-04-26 09:44 51.62993 0.16209 6038 ft 273 kts 334°
2026-04-26 09:44 51.64568 0.14519 6034 ft 274 kts 318°
2026-04-26 09:44 51.65797 0.12190 6404 ft 273 kts 302°
2026-04-26 09:45 51.66821 0.09587 7253 ft 276 kts 302°
2026-04-26 09:45 51.67873 0.06975 8136 ft 279 kts 302°
2026-04-26 09:45 51.68940 0.04340 9003 ft 283 kts 302°
2026-04-26 09:45 51.70024 0.01660 9873 ft 287 kts 302°
2026-04-26 09:46 51.71119 -0.01054 10667 ft 292 kts 302°
2026-04-26 09:46 51.72256 -0.03883 11132 ft 309 kts 302°
2026-04-26 09:46 51.73457 -0.06875 11560 ft 325 kts 302°
2026-04-26 09:46 51.74842 -0.09820 12197 ft 334 kts 313°
2026-04-26 09:47 51.76630 -0.12227 12997 ft 338 kts 326°
2026-04-26 09:47 51.78668 -0.14176 13771 ft 342 kts 328°
2026-04-26 09:47 51.80729 -0.16130 14514 ft 345 kts 328°
2026-04-26 09:47 51.82801 -0.18104 15138 ft 348 kts 328°
2026-04-26 09:48 51.84901 -0.20106 15781 ft 352 kts 327°
2026-04-26 09:48 51.87014 -0.22122 16422 ft 355 kts 327°
2026-04-26 09:48 51.89156 -0.24164 17075 ft 359 kts 327°
2026-04-26 09:48 51.91311 -0.26228 17701 ft 362 kts 327°
2026-04-26 09:49 51.93485 -0.28315 18337 ft 366 kts 327°
2026-04-26 09:49 51.95691 -0.30432 18916 ft 369 kts 327°
2026-04-26 09:49 51.97908 -0.32563 19489 ft 372 kts 327°
2026-04-26 09:49 52.00142 -0.34711 20054 ft 374 kts 327°
2026-04-26 09:50 52.02387 -0.36866 20630 ft 376 kts 327°
2026-04-26 09:50 52.04643 -0.39036 21221 ft 378 kts 327°
2026-04-26 09:50 52.06907 -0.41219 21773 ft 380 kts 327°
2026-04-26 09:50 52.09191 -0.43423 22317 ft 382 kts 327°
2026-04-26 09:51 52.11479 -0.45637 22854 ft 385 kts 327°
2026-04-26 09:51 52.13782 -0.47871 23388 ft 387 kts 327°
2026-04-26 09:51 52.16103 -0.50119 23896 ft 389 kts 327°
2026-04-26 09:51 52.18442 -0.52387 24341 ft 391 kts 327°
2026-04-26 09:52 52.20781 -0.54655 24773 ft 393 kts 326°
2026-04-26 09:52 52.25509 -0.59242 25611 ft 397 kts 326°
2026-04-26 09:52 52.27884 -0.61554 26029 ft 399 kts 326°
2026-04-26 09:53 52.30236 -0.63855 26443 ft 400 kts 326°
2026-04-26 09:53 52.32628 -0.66201 26838 ft 402 kts 326°
2026-04-26 09:53 52.35035 -0.68562 27244 ft 404 kts 326°
2026-04-26 09:53 52.37455 -0.70932 27635 ft 406 kts 326°
2026-04-26 09:54 52.39887 -0.73313 28023 ft 408 kts 326°
2026-04-26 09:54 52.42331 -0.75707 28415 ft 410 kts 326°
2026-04-26 09:54 52.44782 -0.78115 28802 ft 412 kts 326°
2026-04-26 09:54 52.47245 -0.80545 29161 ft 414 kts 326°
2026-04-26 09:55 52.49713 -0.82988 29537 ft 416 kts 325°
2026-04-26 09:55 52.52201 -0.85446 29906 ft 418 kts 325°
2026-04-26 09:55 52.54698 -0.87917 30254 ft 420 kts 325°
2026-04-26 09:55 52.57208 -0.90400 30570 ft 422 kts 325°
2026-04-26 09:56 52.59733 -0.92900 30849 ft 424 kts 325°
2026-04-26 09:56 52.62265 -0.95409 31096 ft 426 kts 325°
2026-04-26 09:56 52.64772 -0.97898 31365 ft 427 kts 325°
2026-04-26 09:56 52.67312 -1.00425 31638 ft 429 kts 325°
2026-04-26 09:57 52.69867 -1.02975 32024 ft 429 kts 325°
2026-04-26 09:57 52.72419 -1.05527 32427 ft 427 kts 325°
2026-04-26 09:57 52.74953 -1.08067 32822 ft 426 kts 325°
2026-04-26 09:57 52.77486 -1.10604 33205 ft 425 kts 325°
2026-04-26 09:58 52.80011 -1.13135 33589 ft 424 kts 325°
2026-04-26 09:58 52.82531 -1.15663 33972 ft 423 kts 325°
2026-04-26 09:58 52.85042 -1.18186 34349 ft 422 kts 325°
2026-04-26 09:58 52.87553 -1.20707 34673 ft 422 kts 325°
2026-04-26 09:59 52.90059 -1.23230 34962 ft 421 kts 325°
2026-04-26 09:59 52.92553 -1.25758 35239 ft 421 kts 325°
2026-04-26 09:59 52.95054 -1.28292 35513 ft 421 kts 325°
2026-04-26 09:59 52.97549 -1.30819 35780 ft 421 kts 325°
2026-04-26 10:00 53.00049 -1.33346 36023 ft 420 kts 325°
2026-04-26 10:00 53.02542 -1.35874 36276 ft 420 kts 325°
2026-04-26 10:00 53.05035 -1.38405 36517 ft 420 kts 325°
2026-04-26 10:00 53.07536 -1.40947 36773 ft 420 kts 325°
2026-04-26 10:01 53.10024 -1.43486 36999 ft 420 kts 325°
2026-04-26 10:01 53.12515 -1.46035 37215 ft 420 kts 325°
2026-04-26 10:01 53.15003 -1.48586 37433 ft 420 kts 325°
2026-04-26 10:01 53.17488 -1.51132 37634 ft 420 kts 325°
2026-04-26 10:02 53.19978 -1.53676 37849 ft 420 kts 325°
2026-04-26 10:02 53.22467 -1.56223 38056 ft 420 kts 325°
2026-04-26 10:02 53.24961 -1.58783 38254 ft 420 kts 325°
2026-04-26 10:02 53.27444 -1.61337 38337 ft 420 kts 325°
2026-04-26 10:03 53.32409 -1.66458 38341 ft 419 kts 325°
2026-04-26 10:03 53.37371 -1.71591 38338 ft 419 kts 325°
2026-04-26 10:04 53.42295 -1.76698 38337 ft 419 kts 325°
2026-04-26 10:04 53.47255 -1.81853 38336 ft 419 kts 325°
2026-04-26 10:05 53.52205 -1.87016 38330 ft 419 kts 325°
2026-04-26 10:05 53.57158 -1.92200 38333 ft 420 kts 325°
2026-04-26 10:06 53.62130 -1.97398 38336 ft 420 kts 325°
2026-04-26 10:06 53.67087 -2.02612 38335 ft 420 kts 324°
2026-04-26 10:07 53.72038 -2.07855 38330 ft 420 kts 324°
2026-04-26 10:07 53.77276 -2.12316 38317 ft 425 kts 334°
2026-04-26 10:08 53.82772 -2.16047 38323 ft 425 kts 334°
2026-04-26 10:08 53.88261 -2.19795 38319 ft 426 kts 334°
2026-04-26 10:09 53.93761 -2.23561 38318 ft 426 kts 334°
2026-04-26 10:09 53.99260 -2.27352 38324 ft 426 kts 334°
2026-04-26 10:10 54.04759 -2.31138 38318 ft 427 kts 334°
2026-04-26 10:10 54.10271 -2.34938 38247 ft 429 kts 334°
2026-04-26 10:11 54.13034 -2.36849 37966 ft 427 kts 334°
2026-04-26 10:11 54.15782 -2.38753 37687 ft 427 kts 334°
2026-04-26 10:11 54.18539 -2.40667 37426 ft 427 kts 334°
2026-04-26 10:11 54.21295 -2.42582 37165 ft 427 kts 334°
2026-04-26 10:12 54.24044 -2.44501 36901 ft 427 kts 334°
2026-04-26 10:12 54.26801 -2.46427 36636 ft 428 kts 334°
2026-04-26 10:12 54.29555 -2.48352 36381 ft 427 kts 334°
2026-04-26 10:12 54.32261 -2.50247 36130 ft 424 kts 334°
2026-04-26 10:13 54.34978 -2.52155 35867 ft 421 kts 334°
2026-04-26 10:13 54.37675 -2.54048 35409 ft 417 kts 333°
2026-04-26 10:13 54.40360 -2.55933 34905 ft 415 kts 333°
2026-04-26 10:13 54.43019 -2.57804 34402 ft 413 kts 333°
2026-04-26 10:14 54.45672 -2.59676 33864 ft 410 kts 333°
2026-04-26 10:14 54.48302 -2.61532 33361 ft 407 kts 333°
2026-04-26 10:14 54.50905 -2.63368 32886 ft 403 kts 333°
2026-04-26 10:14 54.53493 -2.65197 32403 ft 400 kts 333°
2026-04-26 10:15 54.56056 -2.67011 31929 ft 397 kts 333°
2026-04-26 10:15 54.58596 -2.68811 31459 ft 394 kts 333°
2026-04-26 10:15 54.61119 -2.70602 31003 ft 391 kts 333°
2026-04-26 10:15 54.63619 -2.72377 30561 ft 387 kts 333°
2026-04-26 10:16 54.66106 -2.74150 30075 ft 384 kts 333°
2026-04-26 10:16 54.68559 -2.75900 29636 ft 379 kts 333°
2026-04-26 10:16 54.70982 -2.77630 29217 ft 375 kts 333°
2026-04-26 10:16 54.73381 -2.79348 28812 ft 371 kts 333°
2026-04-26 10:17 54.75755 -2.81053 28401 ft 367 kts 333°
2026-04-26 10:17 54.78100 -2.82737 27993 ft 363 kts 333°
2026-04-26 10:17 54.80426 -2.84408 27583 ft 360 kts 333°
2026-04-26 10:17 54.82724 -2.86059 27181 ft 357 kts 333°
2026-04-26 10:18 54.85013 -2.87705 26750 ft 354 kts 334°
2026-04-26 10:18 54.87282 -2.89338 26347 ft 351 kts 334°
2026-04-26 10:18 54.89547 -2.90973 25890 ft 358 kts 334°
2026-04-26 10:18 54.91854 -2.92648 25369 ft 360 kts 334°
2026-04-26 10:19 54.94169 -2.94327 24876 ft 360 kts 334°
2026-04-26 10:19 54.96479 -2.96003 24355 ft 360 kts 334°
2026-04-26 10:19 54.98796 -2.97686 23852 ft 361 kts 335°
2026-04-26 10:19 55.01117 -2.99369 23287 ft 361 kts 335°
2026-04-26 10:20 55.03423 -3.01035 22796 ft 359 kts 335°
2026-04-26 10:20 55.04951 -3.02140 22463 ft 358 kts 335°
2026-04-26 10:20 55.07988 -3.04344 21801 ft 357 kts 335°
2026-04-26 10:20 55.10277 -3.06016 21305 ft 356 kts 334°
2026-04-26 10:21 55.12560 -3.07688 20805 ft 356 kts 334°
2026-04-26 10:21 55.14842 -3.09364 20309 ft 356 kts 334°
2026-04-26 10:21 55.17126 -3.11043 19734 ft 358 kts 334°
2026-04-26 10:21 55.19425 -3.12731 19335 ft 356 kts 335°
2026-04-26 10:22 55.21686 -3.14387 18907 ft 349 kts 335°
2026-04-26 10:22 55.23908 -3.16012 18358 ft 340 kts 335°
2026-04-26 10:22 55.26044 -3.17566 17960 ft 326 kts 335°
2026-04-26 10:22 55.28121 -3.19075 17355 ft 321 kts 335°
2026-04-26 10:23 55.30171 -3.20564 16698 ft 318 kts 335°
2026-04-26 10:23 55.32205 -3.22045 16080 ft 315 kts 335°
2026-04-26 10:23 55.34226 -3.23518 15471 ft 312 kts 335°
2026-04-26 10:23 55.36219 -3.24973 14874 ft 310 kts 335°
2026-04-26 10:24 55.38199 -3.26421 14309 ft 307 kts 335°
2026-04-26 10:24 55.40165 -3.27859 13684 ft 304 kts 335°
2026-04-26 10:24 55.42110 -3.29285 13064 ft 301 kts 334°
2026-04-26 10:24 55.44016 -3.30681 12723 ft 289 kts 335°
2026-04-26 10:25 55.45809 -3.31989 12588 ft 270 kts 334°
2026-04-26 10:25 55.47494 -3.33210 12431 ft 254 kts 335°
2026-04-26 10:25 55.49076 -3.34349 12307 ft 238 kts 334°
2026-04-26 10:25 55.50572 -3.35375 12032 ft 231 kts 342°
2026-04-26 10:26 55.52169 -3.35389 11661 ft 234 kts 17°
2026-04-26 10:26 55.53694 -3.34229 11201 ft 245 kts 25°
2026-04-26 10:26 55.55232 -3.32788 10598 ft 254 kts 26°
2026-04-26 10:26 55.56782 -3.31295 10138 ft 254 kts 27°
2026-04-26 10:27 55.58330 -3.29800 9630 ft 253 kts 26°
2026-04-26 10:27 55.59873 -3.28313 9138 ft 252 kts 26°
2026-04-26 10:27 55.61408 -3.26836 8646 ft 251 kts 27°
2026-04-26 10:27 55.62941 -3.25359 8163 ft 251 kts 26°
2026-04-26 10:28 55.64465 -3.23894 7796 ft 246 kts 27°
2026-04-26 10:28 55.65928 -3.22484 7455 ft 242 kts 27°
2026-04-26 10:28 55.67389 -3.21076 7111 ft 237 kts 26°
2026-04-26 10:28 55.68826 -3.19687 6778 ft 233 kts 27°
2026-04-26 10:29 55.70241 -3.18318 6422 ft 230 kts 27°
2026-04-26 10:29 55.71638 -3.16971 6059 ft 227 kts 26°
2026-04-26 10:29 55.73017 -3.15641 5711 ft 225 kts 27°
2026-04-26 10:29 55.74386 -3.14322 5355 ft 223 kts 26°
2026-04-26 10:30 55.75737 -3.13023 5005 ft 220 kts 26°
2026-04-26 10:30 55.77076 -3.11735 4643 ft 217 kts 27°
2026-04-26 10:30 55.78401 -3.10461 4283 ft 216 kts 26°
2026-04-26 10:30 55.79709 -3.09208 4029 ft 209 kts 27°
2026-04-26 10:31 55.80969 -3.08001 4002 ft 205 kts 26°
2026-04-26 10:31 55.82206 -3.06813 4004 ft 205 kts 26°
2026-04-26 10:31 55.83464 -3.05604 4008 ft 205 kts 26°
2026-04-26 10:31 55.84793 -3.04724 4008 ft 204 kts 12°
2026-04-26 10:32 55.86173 -3.04191 4006 ft 203 kts
2026-04-26 10:32 55.87562 -3.03713 4005 ft 204 kts
2026-04-26 10:32 55.88954 -3.03244 4001 ft 203 kts
2026-04-26 10:32 55.90342 -3.02777 4005 ft 203 kts
2026-04-26 10:33 55.91729 -3.02309 4006 ft 203 kts
2026-04-26 10:33 55.93120 -3.01835 4002 ft 203 kts
2026-04-26 10:33 55.94524 -3.01602 3947 ft 202 kts 359°
2026-04-26 10:33 55.95912 -3.01762 3760 ft 199 kts 347°
2026-04-26 10:34 55.97239 -3.02244 3590 ft 190 kts 345°
2026-04-26 10:34 55.98507 -3.02756 3381 ft 183 kts 345°
2026-04-26 10:34 55.99727 -3.03255 3195 ft 176 kts 345°
2026-04-26 10:34 56.00887 -3.03733 3082 ft 166 kts 345°
2026-04-26 10:35 56.01934 -3.04386 3009 ft 154 kts 330°
2026-04-26 10:35 56.02474 -3.05140 3014 ft 147 kts 302°
2026-04-26 10:35 56.02702 -3.06834 3012 ft 144 kts 265°
2026-04-26 10:35 56.02548 -3.08596 3001 ft 144 kts 253°
2026-04-26 10:36 56.02210 -3.10290 3001 ft 145 kts 246°
2026-04-26 10:36 56.01809 -3.11947 3005 ft 145 kts 245°
2026-04-26 10:36 56.01378 -3.13572 3001 ft 146 kts 241°
2026-04-26 10:36 56.00889 -3.15148 2802 ft 144 kts 240°
2026-04-26 10:37 56.00520 -3.16807 2600 ft 144 kts 252°
2026-04-26 10:37 56.00285 -3.18532 2379 ft 143 kts 257°
2026-04-26 10:37 56.00097 -3.20296 2152 ft 145 kts 258°
2026-04-26 10:37 55.99908 -3.22074 1910 ft 147 kts 256°
2026-04-26 10:38 55.99543 -3.23765 1673 ft 146 kts 242°
2026-04-26 10:38 55.99070 -3.25359 1437 ft 146 kts 239°
2026-04-26 10:38 55.98575 -3.26944 1253 ft 146 kts 239°
2026-04-26 10:38 55.98026 -3.28475 1060 ft 145 kts 229°
2026-04-26 10:39 55.97393 -3.29868 865 ft 145 kts 240°
2026-04-26 10:39 55.96949 -3.31483 688 ft 144 kts 240°
2026-04-26 10:39 55.96437 -3.33001 488 ft 142 kts 239°
2026-04-26 10:39 55.95934 -3.34492 294 ft 139 kts 240°
2026-04-26 10:40 55.95437 -3.35968 142 ft 139 kts 239°
2026-04-26 10:40 55.94973 -3.37331 112 ft 108 kts 239°
2026-04-26 10:40 55.94676 -3.38216 113 ft 58 kts 238°
2026-04-26 10:40 55.94559 -3.38575 113 ft 12 kts 250°
2026-04-26 10:41 55.94506 -3.38722 113 ft 18 kts 235°
2026-04-26 10:41 55.94435 -3.38913 114 ft 19 kts 238°
2026-04-26 10:41 55.94344 -3.38930 114 ft 13 kts 151°
2026-04-26 10:41 55.94278 -3.38839 114 ft 11 kts 111°
2026-04-26 10:42 55.94303 -3.38732 114 ft 10 kts 59°
2026-04-26 10:42 55.94362 -3.38562 115 ft 18 kts 58°
2026-04-26 10:42 55.94430 -3.38359 115 ft 20 kts 60°
2026-04-26 10:42 55.94506 -3.38132 113 ft 22 kts 59°
2026-04-26 10:43 55.94591 -3.37882 113 ft 24 kts 59°
2026-04-26 10:43 55.94680 -3.37619 115 ft 26 kts 59°
2026-04-26 10:43 55.94778 -3.37331 113 ft 28 kts 58°
2026-04-26 10:43 55.94867 -3.37065 115 ft 25 kts 58°
2026-04-26 10:44 55.94922 -3.36852 116 ft 14 kts 111°
2026-04-26 10:44 55.94891 -3.36763 115 ft 7 kts 90°
2026-04-26 10:44 55.94909 -3.36695 114 ft 5 kts 72°
2026-04-26 10:44 55.94897 -3.36645 115 ft 4 kts 140°
2026-04-26 10:45 55.94874 -3.36627 115 ft 3 kts 155°
2026-04-26 10:45 55.94854 -3.36604 114 ft 0 kts 145°